EW3309 Weather Reports


Display with metric or nautical units.
time (UTC)temp
F
wind
direction
speed
MPH
gust
MPH
rain 1hr
in
rain 24hr
in
rain mn
in
humidity
%
barometer
mb
20260503201551 68 332 0.0 0.0 0.00 0.00 0.00 64 1012.4
20260503200052 66 296 0.0 0.0 0.00 0.00 0.00 66 1012.7
20260503194549 65 273 0.0 0.0 0.00 0.00 0.00 67 1012.8
20260503193049 65 319 0.0 0.0 0.00 0.00 0.00 68 1012.9
20260503191601 66 298 0.0 0.0 0.00 0.00 0.00 67 1012.8
20260503190051 68 295 0.0 0.0 0.00 0.00 0.00 64 1012.7
20260503184604 71 252 0.0 0.0 0.00 0.00 0.00 59 1012.5
20260503183047 71 180 0.0 0.0 0.00 0.00 0.00 61 1012.6
20260503181543 70 190 0.0 0.0 0.00 0.00 0.00 63 1012.6
20260503180041 70 148 0.0 0.0 0.00 0.00 0.00 65 1012.7
20260503174547 68 173 0.0 0.0 0.00 0.00 0.00 69 1012.9
20260503173033 67 233 0.0 0.0 0.00 0.00 0.00 71 1013.0
20260503171533 66 60 0.0 0.0 0.00 0.00 0.00 74 1013.0
20260503081507 59 227 0.0 0.0 0.00 0.00 0.00 87 1012.1
20260503071614 59 226 0.0 0.0 0.00 0.00 0.00 88 1012.8
20260503070113 59 259 0.0 0.0 0.00 0.00 0.00 88 1012.7
20260503060111 59 245 0.0 0.0 0.00 0.00 0.00 88 1012.6
20260503054559 59 265 0.0 0.0 0.00 0.00 0.00 88 1012.5
20260503053051 59 253 0.0 0.0 0.00 0.00 0.00 88 1012.4
20260503051551 59 266 0.0 0.0 0.00 0.00 0.00 87 1012.1
20260503050044 59 286 0.0 0.0 0.00 0.00 0.00 87 1011.7
20260503044543 59 301 0.0 0.0 0.00 0.00 0.00 86 1011.3
20260503043046 60 302 0.0 0.0 0.00 0.00 0.00 86 1011.1
20260503041543 60 318 0.0 0.0 0.00 0.00 0.00 85 1010.6
20260503040041 60 318 0.0 0.0 0.00 0.00 0.00 85 1010.5
20260503034546 61 315 0.0 0.0 0.00 0.00 0.00 84 1010.3
20260503033053 61 329 0.0 0.0 0.00 0.00 0.00 83 1010.2
20260503031541 62 339 0.0 0.0 0.00 0.00 0.00 82 1009.9
20260503030042 62 329 0.0 0.0 0.00 0.00 0.00 82 1010.0
20260503024546 63 275 0.0 0.0 0.00 0.00 0.00 81 1009.9
20260503023044 64 272 0.0 0.0 0.00 0.00 0.00 79 1009.8
20260503021539 65 269 0.0 0.0 0.00 0.00 0.00 77 1009.7
20260503020044 66 293 0.0 0.0 0.00 0.00 0.00 75 1009.7
20260503014537 66 270 0.0 0.0 0.00 0.00 0.00 73 1009.6
20260503013038 68 272 0.0 0.0 0.00 0.00 0.00 72 1009.6
20260503011540 69 292 0.0 0.0 0.00 0.00 0.00 70 1009.4
20260503010036 70 259 0.0 0.0 0.00 0.00 0.00 69 1009.5
20260503004538 71 301 0.0 0.0 0.00 0.00 0.00 67 1009.3
20260503003038 73 308 0.0 0.0 0.00 0.00 0.00 64 1009.3
20260503001533 74 251 0.0 0.0 0.00 0.00 0.00 62 1009.3
20260503000032 74 294 0.0 0.0 0.00 0.00 0.00 62 1009.1
20260502234533 74 313 0.0 0.0 0.00 0.00 0.00 62 1009.3
20260502233029 75 293 0.0 0.0 0.00 0.00 0.00 61 1009.2
20260502231529 75 296 0.0 0.0 0.00 0.00 0.00 62 1009.3
20260502230026 75 259 0.0 0.0 0.00 0.00 0.00 61 1009.4
20260502224523 75 236 0.0 0.0 0.00 0.00 0.00 61 1009.6
20260502223021 76 267 0.0 0.0 0.00 0.00 0.00 60 1009.9
20260502221519 76 219 0.0 0.0 0.00 0.00 0.00 61 1010.1
20260502220021 75 280 0.0 0.0 0.00 0.00 0.00 61 1010.2
20260502214517 76 327 0.0 0.0 0.00 0.00 0.00 61 1010.5
20260502213032 76 280 0.0 0.0 0.00 0.00 0.00 61 1010.7
20260502211518 76 271 0.0 0.0 0.00 0.00 0.00 62 1010.9
20260502210013 77 290 0.0 0.0 0.00 0.00 0.00 60 1010.6
20260502204509 78 279 0.0 0.0 0.00 0.00 0.00 59 1010.5
20260502203006 77 248 0.0 0.0 0.00 0.00 0.00 60 1010.5